This is the latest recevied weather packets stored in our database for station/object SP6KBU-12. If no packets are shown the sender has not sent any weather packets the latest 10 day(s).
| Time | Temp. | Humidity | Pressure | Rain* | Wind** | Luminosity | Snow |
|---|---|---|---|---|---|---|---|
| 1777525206 | 3.89° C | 39% | 1032.4 hPa | - | - | - | - |
| 1777524306 | 3.33° C | 40% | 1032.3 hPa | - | - | - | - |
| 1777523404 | 2.78° C | 40% | 1032.2 hPa | - | - | - | - |
| 1777522504 | 2.78° C | 41% | 1032.2 hPa | - | - | - | - |
| 1777521604 | 2.22° C | 41% | 1032.2 hPa | - | - | - | - |
| 1777520704 | 2.22° C | 42% | 1032.2 hPa | - | - | - | - |
| 1777519804 | 2.22° C | 42% | 1032.2 hPa | - | - | - | - |
| 1777518904 | 2.22° C | 42% | 1032.1 hPa | - | - | - | - |
| 1777518004 | 1.67° C | 42% | 1032.1 hPa | - | - | - | - |
| 1777517103 | 2.22° C | 42% | 1032 hPa | - | - | - | - |
| 1777516217 | 2.22° C | 41% | 1031.9 hPa | - | - | - | - |
| 1777516203 | 2.22° C | 41% | 1031.9 hPa | - | - | - | - |
| 1777515302 | 2.78° C | 41% | 1031.9 hPa | - | - | - | - |
| 1777514402 | 2.78° C | 40% | 1031.9 hPa | - | - | - | - |
| 1777513514 | 2.78° C | 40% | 1031.9 hPa | - | - | - | - |
| 1777513502 | 2.78° C | 40% | 1031.9 hPa | - | - | - | - |
| 1777512602 | 2.78° C | 40% | 1031.6 hPa | - | - | - | - |
| 1777511702 | 2.78° C | 40% | 1031.6 hPa | - | - | - | - |
| 1777510802 | 2.78° C | 40% | 1031.5 hPa | - | - | - | - |
| 1777509902 | 2.22° C | 40% | 1031.5 hPa | - | - | - | - |
| 1777509002 | 2.22° C | 40% | 1031.5 hPa | - | - | - | - |
| 1777508102 | 2.22° C | 40% | 1031.5 hPa | - | - | - | - |
| 1777507201 | 2.22° C | 40% | 1031.6 hPa | - | - | - | - |
| 1777506301 | 2.22° C | 39% | 1031.6 hPa | - | - | - | - |
| 1777505401 | 1.67° C | 39% | 1031.8 hPa | - | - | - | - |
* Rain since midnight (hover to see other rain measurements)
** Current wind speed in m/s (hover to see current wind gust speed)